Port Heiden, AK

9:08 AM AKDT on October 19, 2017 (GMT -0800)
Port Heiden

Weather History for PAPH - March, 2014

Change the Weather History Date:

Saturday, March 29, 2014

  Actual Average Record
Temperature  
Mean Temperature 32 °F -  
Max Temperature 37 °F 31 °F 44 °F (2015)
Min Temperature 26 °F 19 °F 6 °F (2007)
Degree Days  
Heating Degree Days 34    
Moisture  
Dew Point 25 °F    
Average Humidity 72    
Maximum Humidity 80    
Minimum Humidity 52    
Precipitation  
Precipitation 0.00 in - - ()
Sea Level Pressure  
Sea Level Pressure 29.79 in    
Wind  
Wind Speed 7 mph (SW)    
Max Wind Speed 13 mph    
Max Gust Speed -    
Visibility 9 miles    
Events      
Averages and records for this station are not official NWS values.
T = Trace of Precipitation, MM = Missing Value Source: NWS Daily Summary

Daily Weather History Graph

Daily Weather History Graph

Search for Another Location

Airport or City:

Trip Planner

Search our weather history database for the weather conditions in past years. The results will help you decide how hot, cold, wet, or windy it might be!

Date:

Astronomy

Mar. 29, 2014 Rise Set
Actual Time 8:11 AM AKDT 9:08 PM AKDT
Civil Twilight 7:32 AM AKDT 9:47 PM AKDT
Nautical Twilight 6:45 AM AKDT 10:34 PM AKDT
Astronomical Twilight 5:53 AM AKDT 11:27 PM AKDT
Moon 7:38 AM AKDT (3/29) 8:22 PM AKDT (3/29)
Length of Visible Light 14h 14m
Length of Day
12h 56m
Waning Crescent, 1% of the Moon is Illuminated
Mar 29
Waning Crescent
Mar 30
New
Apr 7
First Quarter
Apr 14
Full
Apr 21
Last Quarter

Hourly Weather History & Observations

Time (AKDT) Temp. Windchill Dew Point Humidity Pressure Visibility Wind Dir Wind Speed Gust Speed Precip Events Conditions
12:16 AM 30.2 °F 23.4 °F 21.2 °F 69% 29.65 in 10.0 mi East 6.9 mph - N/A   Overcast
12:36 AM 30.2 °F 25.4 °F 21.2 °F 69% 29.66 in 10.0 mi ESE 4.6 mph - N/A   Mostly Cloudy
12:56 AM 30.2 °F 24.3 °F 21.2 °F 69% 29.65 in 10.0 mi East 5.8 mph - N/A   Mostly Cloudy
1:16 AM 30.2 °F 24.3 °F 21.2 °F 69% 29.65 in 10.0 mi ESE 5.8 mph - N/A   Mostly Cloudy
1:36 AM 30.2 °F 26.7 °F 21.2 °F 69% 29.65 in 10.0 mi ESE 3.5 mph - N/A   Overcast
1:56 AM 30.2 °F 26.7 °F 21.2 °F 69% 29.66 in 10.0 mi SSE 3.5 mph - N/A   Overcast
2:16 AM 30.2 °F 26.7 °F 21.2 °F 69% 29.66 in 10.0 mi SE 3.5 mph - N/A   Overcast
2:36 AM 30.2 °F 26.7 °F 21.2 °F 69% 29.66 in 10.0 mi SE 3.5 mph - N/A   Overcast
2:56 AM 33.8 °F 27.7 °F 23.0 °F 65% 29.66 in 10.0 mi SSE 6.9 mph - N/A   Overcast
3:16 AM 33.8 °F 25.3 °F 23.0 °F 65% 29.66 in 10.0 mi SSE 11.5 mph - N/A   Overcast
3:36 AM 33.8 °F 24.8 °F 23.0 °F 65% 29.66 in 10.0 mi SSE 12.7 mph - N/A   Overcast
3:56 AM 33.8 °F 26.4 °F 23.0 °F 65% 29.66 in 10.0 mi SSE 9.2 mph - N/A   Overcast
4:16 AM 33.8 °F 25.8 °F 23.0 °F 65% 29.66 in 10.0 mi South 10.4 mph - N/A   Overcast
4:36 AM 33.8 °F 27.0 °F 23.0 °F 65% 29.67 in 10.0 mi South 8.1 mph - N/A   Overcast
4:56 AM 33.8 °F 26.4 °F 24.8 °F 70% 29.67 in 10.0 mi South 9.2 mph - N/A   Overcast
5:16 AM 33.8 °F 26.4 °F 23.0 °F 65% 29.67 in 10.0 mi SSE 9.2 mph - N/A   Overcast
5:36 AM 33.8 °F 27.0 °F 23.0 °F 65% 29.67 in 10.0 mi South 8.1 mph - N/A   Overcast
5:56 AM 33.8 °F 28.6 °F 23.0 °F 65% 29.67 in 10.0 mi South 5.8 mph - N/A   Overcast
6:16 AM 33.8 °F 27.0 °F 24.8 °F 70% 29.67 in 10.0 mi South 8.1 mph - N/A   Overcast
6:36 AM 32.0 °F 23.6 °F 23.0 °F 69% 29.68 in 10.0 mi South 10.4 mph - N/A   Overcast
6:56 AM 32.0 °F 24.2 °F 24.8 °F 75% 29.68 in 10.0 mi South 9.2 mph - N/A   Overcast
7:16 AM 30.2 °F 23.4 °F 24.8 °F 80% 29.68 in 10.0 mi South 6.9 mph - N/A   Overcast
7:36 AM 30.2 °F 23.4 °F 24.8 °F 80% 29.69 in 10.0 mi South 6.9 mph - N/A   Mostly Cloudy
7:56 AM 30.2 °F 24.3 °F 24.8 °F 80% 29.69 in 10.0 mi South 5.8 mph - N/A   Overcast
8:16 AM 32.0 °F 27.5 °F 24.8 °F 75% 29.70 in 10.0 mi South 4.6 mph - N/A   Overcast
8:36 AM 32.0 °F 26.4 °F 24.8 °F 75% 29.70 in 10.0 mi South 5.8 mph - N/A   Overcast
8:56 AM 32.0 °F 27.5 °F 24.8 °F 75% 29.70 in 10.0 mi SSW 4.6 mph - N/A   Overcast
9:16 AM 32.0 °F 28.7 °F 24.8 °F 75% 29.71 in 5.0 mi SSW 3.5 mph - N/A   Overcast
9:36 AM 32.0 °F 28.7 °F 26.6 °F 80% 29.71 in 5.0 mi SSW 3.5 mph - N/A   Overcast
9:56 AM 32.0 °F 28.7 °F 26.6 °F 80% 29.72 in 1.8 mi SSW 3.5 mph - N/A   Overcast
10:16 AM 32.0 °F 28.7 °F 26.6 °F 80% 29.73 in 5.0 mi SW 3.5 mph - N/A   Overcast
10:36 AM 33.8 °F 30.8 °F 26.6 °F 75% 29.74 in 4.0 mi SW 3.5 mph - N/A   Overcast
10:56 AM 33.8 °F 28.6 °F 26.6 °F 75% 29.74 in 5.0 mi SSW 5.8 mph - N/A   Overcast
11:16 AM 33.8 °F 27.7 °F 26.6 °F 75% 29.75 in 4.0 mi South 6.9 mph - N/A   Overcast
11:36 AM 35.6 °F 28.6 °F 26.6 °F 70% 29.75 in 8.0 mi SSW 9.2 mph - N/A   Overcast
11:56 AM 35.6 °F 29.2 °F 26.6 °F 70% 29.76 in 7.0 mi South 8.1 mph - N/A   Overcast
12:16 PM 35.6 °F 28.6 °F 26.6 °F 70% 29.77 in 9.0 mi South 9.2 mph - N/A   Overcast
12:36 PM 35.6 °F 29.9 °F 26.6 °F 70% 29.78 in 10.0 mi South 6.9 mph - N/A   Overcast
12:56 PM 35.6 °F 31.7 °F 28.4 °F 75% 29.79 in 10.0 mi South 4.6 mph - N/A   Overcast
1:16 PM 35.6 °F 29.9 °F 28.4 °F 75% 29.80 in 10.0 mi WSW 6.9 mph - N/A   Overcast
1:36 PM 35.6 °F 32.8 °F 28.4 °F 75% 29.80 in 10.0 mi West 3.5 mph - N/A   Overcast
1:56 PM 35.6 °F - 28.4 °F 75% 29.80 in 10.0 mi Calm Calm - N/A   Overcast
2:16 PM 35.6 °F 29.2 °F 28.4 °F 75% 29.81 in 10.0 mi West 8.1 mph - N/A   Overcast
2:36 PM 37.4 °F 32.1 °F 28.4 °F 70% 29.81 in 10.0 mi West 6.9 mph - N/A   Overcast
2:56 PM 35.6 °F 29.9 °F 28.4 °F 75% 29.82 in 10.0 mi West 6.9 mph - N/A   Overcast
3:16 PM 35.6 °F 30.7 °F 26.6 °F 70% 29.83 in 10.0 mi WNW 5.8 mph - N/A   Overcast
3:36 PM 35.6 °F 29.9 °F 26.6 °F 70% 29.83 in 10.0 mi WNW 6.9 mph - N/A   Overcast
3:56 PM 35.6 °F 29.9 °F 28.4 °F 75% 29.84 in 10.0 mi NW 6.9 mph - N/A   Overcast
4:16 PM 37.4 °F 32.1 °F 28.4 °F 70% 29.85 in 10.0 mi WNW 6.9 mph - N/A   Overcast
4:36 PM 37.4 °F 31.4 °F 28.4 °F 70% 29.85 in 10.0 mi WNW 8.1 mph - N/A   Overcast
4:56 PM 35.6 °F 30.7 °F 28.4 °F 75% 29.86 in 10.0 mi WNW 5.8 mph - N/A   Overcast
5:16 PM 37.4 °F 31.4 °F 28.4 °F 70% 29.86 in 10.0 mi WNW 8.1 mph - N/A   Overcast
5:36 PM 35.6 °F 28.6 °F 28.4 °F 75% 29.86 in 10.0 mi NW 9.2 mph - N/A   Overcast
5:56 PM 35.6 °F 29.2 °F 28.4 °F 75% 29.88 in 10.0 mi NNW 8.1 mph - N/A   Overcast
6:16 PM 35.6 °F 29.2 °F 28.4 °F 75% 29.88 in 10.0 mi NW 8.1 mph - N/A   Overcast
6:36 PM 35.6 °F 29.9 °F 26.6 °F 70% 29.89 in 10.0 mi NW 6.9 mph - N/A   Overcast
6:56 PM 35.6 °F 30.7 °F 26.6 °F 70% 29.89 in 10.0 mi NW 5.8 mph - N/A   Overcast
7:16 PM 35.6 °F 29.2 °F 26.6 °F 70% 29.90 in 10.0 mi NNW 8.1 mph - N/A   Overcast
7:36 PM 35.6 °F 28.6 °F 26.6 °F 70% 29.91 in 10.0 mi NW 9.2 mph - N/A   Overcast
7:56 PM 33.8 °F 27.0 °F 26.6 °F 75% 29.92 in 10.0 mi NNW 8.1 mph - N/A   Overcast
8:16 PM 33.8 °F 28.6 °F 26.6 °F 75% 29.93 in 10.0 mi NW 5.8 mph - N/A   Overcast
8:36 PM 33.8 °F 27.0 °F 26.6 °F 75% 29.94 in 10.0 mi NW 8.1 mph - N/A   Overcast
8:56 PM 33.8 °F 26.4 °F 26.6 °F 75% 29.95 in 10.0 mi NW 9.2 mph - N/A   Overcast
9:16 PM 33.8 °F 28.6 °F 26.6 °F 75% 29.96 in 10.0 mi WNW 5.8 mph - N/A   Overcast
9:36 PM 33.8 °F 28.6 °F 26.6 °F 75% 29.96 in 10.0 mi NW 5.8 mph - N/A   Overcast
9:56 PM 30.2 °F 24.3 °F 24.8 °F 80% 29.97 in 10.0 mi NW 5.8 mph - N/A   Overcast
10:16 PM 28.4 °F 22.2 °F 21.2 °F 74% 29.97 in 10.0 mi NW 5.8 mph - N/A   Mostly Cloudy
10:36 PM 30.2 °F 25.4 °F 23.0 °F 75% 29.99 in 10.0 mi NW 4.6 mph - N/A   Scattered Clouds
10:56 PM 28.4 °F 21.2 °F 23.0 °F 80% 29.99 in 10.0 mi WNW 6.9 mph - N/A   Overcast
11:16 PM 30.2 °F 24.3 °F 24.8 °F 80% 29.99 in 10.0 mi WNW 5.8 mph - N/A   Overcast
11:36 PM 30.2 °F 20.8 °F 24.8 °F 80% 30.01 in 0.5 mi NW 11.5 mph - N/A   Overcast
11:56 PM 30.2 °F 21.3 °F 24.8 °F 80% 30.02 in 5.0 mi NW 10.4 mph - N/A   Overcast